When you browse on this site, cookies collect data to enhance your experience and personalize the content and advertising you see.
Visit our Privacy Policy to learn more. By continuing to use the site, you agree to this use of cookies and data.
  • In Sweden
  • List of Countries
  • For 7 days
  • Water Temperature
  • Weather Map
  • Weather Widgets
  • user-avatar
    Login

    Hourly Weather Sarzyn

    Today, 27 February, Thursday

    Time Temperature Precipitation Wind Pressure Humidity
    00:00 0°C° 0.1 mm 4 mps 735 mmHg 88%
    01:00 0°C° 0.1 mm 4 mps 736 mmHg 85%
    02:00 -1°C° 0 mm 4 mps 736 mmHg 87%
    03:00 -1°C° 0 mm 5 mps 736 mmHg 89%
    04:00 -2°C° 0 mm 6 mps 736 mmHg 91%
    05:00 -3°C° 0 mm 6 mps 737 mmHg 91%
    06:00 -3°C° 0 mm 6 mps 737 mmHg 91%
    07:00 -3°C° 0 mm 6 mps 737 mmHg 92%
    08:00 -2°C° 0.1 mm 6 mps 738 mmHg 87%
    09:00 -2°C° 0.1 mm 6 mps 738 mmHg 81%
    10:00 -1°C° 0.1 mm 6 mps 738 mmHg 76%
    11:00 -1°C° 0.1 mm 6 mps 738 mmHg 72%
    12:00 +1°C° 0.1 mm 6 mps 739 mmHg 69%
    13:00 +1°C° 0.1 mm 6 mps 739 mmHg 65%
    14:00 +1°C° 0 mm 6 mps 739 mmHg 65%
    15:00 +1°C° 0 mm 5 mps 738 mmHg 65%
    16:00 +1°C° 0 mm 5 mps 738 mmHg 64%
    17:00 0°C° 0 mm 4 mps 738 mmHg 71%
    18:00 +1°C° 0 mm 3 mps 738 mmHg 78%
    19:00 +1°C° 0 mm 2 mps 738 mmHg 85%
    20:00 -1°C° 0 mm 2 mps 738 mmHg 87%
    21:00 -1°C° 0 mm 2 mps 738 mmHg 89%
    22:00 -1°C° 0 mm 2 mps 738 mmHg 92%
    23:00 -1°C° 0 mm 2 mps 738 mmHg 92%

    Tomorrow, 28 February, Friday

    Time Temperature Precipitation Wind Pressure Humidity
    00:00 -1°C° 0 mm 2 mps 738 mmHg 92%
    01:00 +1°C° 0 mm 1 mps 738 mmHg 91%
    02:00 +1°C° 0 mm 1 mps 738 mmHg 91%
    03:00 +1°C° 0 mm 1 mps 738 mmHg 90%
    04:00 0°C° 0 mm 0 mps 738 mmHg 89%
    05:00 0°C° 0 mm 0 mps 739 mmHg 89%
    06:00 +1°C° 0 mm 1 mps 739 mmHg 88%
    07:00 +1°C° 0 mm 1 mps 740 mmHg 88%
    08:00 +1°C° 0 mm 2 mps 740 mmHg 83%
    09:00 +2°C° 0 mm 2 mps 741 mmHg 79%
    10:00 +2°C° 0 mm 3 mps 742 mmHg 75%
    11:00 +1°C° 0 mm 4 mps 742 mmHg 72%
    12:00 +3°C° 0 mm 4 mps 743 mmHg 70%
    13:00 +2°C° 0 mm 5 mps 743 mmHg 67%
    14:00 +2°C° 0 mm 5 mps 744 mmHg 67%
    15:00 +3°C° 0 mm 4 mps 744 mmHg 66%
    16:00 +3°C° 0 mm 4 mps 744 mmHg 66%
    17:00 +1°C° 0 mm 4 mps 745 mmHg 71%
    18:00 0°C° 0 mm 4 mps 745 mmHg 75%
    19:00 -1°C° 0 mm 4 mps 746 mmHg 80%
    20:00 -1°C° 0 mm 4 mps 746 mmHg 82%
    21:00 -1°C° 0 mm 4 mps 746 mmHg 84%
    22:00 -1°C° 0 mm 3 mps 746 mmHg 87%
    23:00 -2°C° 0 mm 4 mps 746 mmHg 88%

    Day after tomorrow, 29 February, Saturday

    Time Temperature Precipitation Wind Pressure Humidity
    00:00 -2°C° 0 mm 4 mps 746 mmHg 89%
    01:00 -2°C° 0 mm 5 mps 747 mmHg 91%
    02:00 -2°C° 0 mm 4 mps 747 mmHg 91%
    03:00 -2°C° 0 mm 4 mps 746 mmHg 92%
    04:00 -2°C° 0 mm 4 mps 746 mmHg 93%
    05:00 -1°C° 0 mm 3 mps 746 mmHg 93%
    06:00 -1°C° 0 mm 3 mps 746 mmHg 93%
    07:00 -1°C° 0 mm 2 mps 746 mmHg 94%
    08:00 0°C° 0 mm 3 mps 746 mmHg 86%
    09:00 0°C° 0 mm 4 mps 745 mmHg 78%
    10:00 +3°C° 0 mm 4 mps 745 mmHg 71%
    11:00 +2°C° 0 mm 5 mps 744 mmHg 65%
    12:00 +3°C° 0 mm 5 mps 744 mmHg 60%
    13:00 +4°C° 0 mm 6 mps 743 mmHg 54%
    14:00 +4°C° 0 mm 6 mps 742 mmHg 54%
    15:00 +4°C° 0 mm 6 mps 742 mmHg 54%
    16:00 +5°C° 0 mm 5 mps 741 mmHg 54%
    17:00 +3°C° 0 mm 5 mps 740 mmHg 57%
    18:00 +3°C° 0 mm 6 mps 740 mmHg 60%
    19:00 +2°C° 0 mm 6 mps 740 mmHg 63%
    20:00 +2°C° 0.1 mm 6 mps 740 mmHg 65%
    21:00 +2°C° 0.1 mm 6 mps 739 mmHg 66%
    22:00 +2°C° 0.1 mm 6 mps 739 mmHg 68%
    23:00 +2°C° 0 mm 6 mps 739 mmHg 68%

    1 March, Sunday

    Time Temperature Precipitation Wind Pressure Humidity
    00:00 +2°C° 0 mm 5 mps 739 mmHg 69%
    01:00 +2°C° 0 mm 5 mps 738 mmHg 70%
    02:00 +3°C° 0.2 mm 5 mps 738 mmHg 72%
    03:00 +3°C° 0.2 mm 6 mps 738 mmHg 74%
    04:00 +3°C° 0.2 mm 6 mps 738 mmHg 77%
    05:00 +3°C° 0.7 mm 6 mps 738 mmHg 82%
    06:00 +3°C° 0.7 mm 5 mps 738 mmHg 87%
    07:00 +3°C° 0.7 mm 4 mps 738 mmHg 92%
    08:00 +3°C° 0.1 mm 5 mps 738 mmHg 87%
    09:00 +4°C° 0.1 mm 6 mps 738 mmHg 82%
    10:00 +4°C° 0.1 mm 6 mps 738 mmHg 78%
    11:00 +5°C° 0 mm 7 mps 738 mmHg 73%
    12:00 +6°C° 0 mm 7 mps 738 mmHg 69%
    13:00 +6°C° 0 mm 7 mps 738 mmHg 64%
    14:00 +6°C° 0 mm 7 mps 738 mmHg 64%
    15:00 +7°C° 0 mm 6 mps 737 mmHg 64%
    16:00 +7°C° 0 mm 6 mps 737 mmHg 65%
    17:00 +7°C° 0.2 mm 6 mps 737 mmHg 69%
    18:00 +5°C° 0.2 mm 6 mps 738 mmHg 73%
    19:00 +5°C° 0.2 mm 5 mps 738 mmHg 78%
    20:00 +5°C° 0.1 mm 5 mps 738 mmHg 80%
    21:00 +3°C° 0.1 mm 5 mps 738 mmHg 81%
    22:00 +4°C° 0.1 mm 4 mps 738 mmHg 83%
    23:00 +3°C° 0 mm 4 mps 738 mmHg 86%

    2 March, Monday

    Time Temperature Precipitation Wind Pressure Humidity
    00:00 +3°C° 0 mm 4 mps 738 mmHg 88%
    01:00 +2°C° 0 mm 3 mps 738 mmHg 91%
    02:00 +2°C° 0 mm 3 mps 738 mmHg 91%
    03:00 +2°C° 0 mm 3 mps 738 mmHg 92%
    04:00 +1°C° 0 mm 3 mps 738 mmHg 92%
    05:00 +1°C° 0 mm 3 mps 738 mmHg 92%
    06:00 +3°C° 0 mm 2 mps 738 mmHg 91%
    07:00 +3°C° 0 mm 2 mps 738 mmHg 90%
    08:00 +4°C° 0 mm 2 mps 738 mmHg 86%
    09:00 +5°C° 0 mm 2 mps 738 mmHg 81%
    10:00 +6°C° 0 mm 2 mps 738 mmHg 77%
    11:00 +7°C° 0 mm 2 mps 737 mmHg 73%
    12:00 +7°C° 0 mm 2 mps 737 mmHg 69%
    13:00 +9°C° 0 mm 1 mps 737 mmHg 65%
    14:00 +9°C° 0 mm 1 mps 737 mmHg 66%
    15:00 +9°C° 0 mm 1 mps 737 mmHg 68%
    16:00 +9°C° 0 mm 1 mps 737 mmHg 70%
    17:00 +8°C° 0 mm 1 mps 737 mmHg 71%
    18:00 +7°C° 0 mm 1 mps 737 mmHg 73%
    19:00 +6°C° 0 mm 1 mps 737 mmHg 75%
    20:00 +5°C° 0 mm 2 mps 738 mmHg 76%
    21:00 +4°C° 0 mm 2 mps 738 mmHg 77%
    22:00 +4°C° 0 mm 2 mps 738 mmHg 79%
    23:00 +3°C° 0 mm 2 mps 739 mmHg 80%

    3 March, Tuesday

    Time Temperature Precipitation Wind Pressure Humidity
    00:00 +2°C° 0 mm 3 mps 739 mmHg 81%
    01:00 +1°C° 0 mm 3 mps 739 mmHg 82%
    02:00 +1°C° 0 mm 3 mps 740 mmHg 84%
    03:00 +2°C° 0 mm 2 mps 740 mmHg 85%
    04:00 +1°C° 0 mm 2 mps 740 mmHg 87%
    05:00 +1°C° 0 mm 2 mps 741 mmHg 87%
    06:00 +1°C° 0 mm 2 mps 741 mmHg 88%
    07:00 +1°C° 0 mm 2 mps 742 mmHg 88%
    08:00 +2°C° 0 mm 3 mps 742 mmHg 81%
    09:00 +3°C° 0 mm 3 mps 742 mmHg 74%
    10:00 +5°C° 0 mm 3 mps 743 mmHg 67%
    11:00 +7°C° 0 mm 3 mps 743 mmHg 64%
    12:00 +7°C° 0 mm 3 mps 743 mmHg 61%
    13:00 +8°C° 0 mm 3 mps 743 mmHg 57%
    14:00 +8°C° 0 mm 3 mps 743 mmHg 59%
    15:00 +8°C° 0 mm 2 mps 743 mmHg 61%
    16:00 +8°C° 0 mm 2 mps 743 mmHg 62%
    17:00 +7°C° 0 mm 2 mps 743 mmHg 65%
    18:00 +7°C° 0 mm 2 mps 743 mmHg 68%
    19:00 +6°C° 0 mm 2 mps 743 mmHg 71%
    20:00 +6°C° 0 mm 2 mps 743 mmHg 72%
    21:00 +5°C° 0 mm 3 mps 743 mmHg 74%
    22:00 +4°C° 0 mm 3 mps 743 mmHg 75%
    23:00 +4°C° 0 mm 3 mps 743 mmHg 76%
    Show more